Miscellaneous Local Product
Issued by NWS Hastings, NE

Home | Current Version | Previous Version | Graphics & Text | Print | Product List | Glossary On
Versions: 1 2 3 4 5 6 7 8 9 10 11 12 13 14 15 16 17 18 19 20 21 22 23 24 25 26 27 28 29 30 31 32 33 34 35 36 37 38 39 40 41 42 43 44 45 46 47 48 49 50
000
AXUS43 KGID 222002
MISGRI

GID CWA HOURLY WEATHER ROUNDUP
NATIONAL WEATHER SERVICE HASTINGS NE
300 PM CDT TUE JUL 22 2014

NOTE: "FAIR" INDICATES FEW OR NO CLOUDS BELOW 12,000 FEET WITH NO
SIGNIFICANT WEATHER AND/OR OBSTRUCTIONS TO VISIBILITY.

...SOUTH CENTRAL NEBRASKA...

CITY           SKY/WX    TMP DP  RH WIND       PRES   REMARKS
GRAND ISLAND   SUNNY     88  67  49 NE10      30.14R HX  91
HASTINGS       SUNNY     89  65  44 N16G24    30.13R HX  91
KEARNEY        SUNNY     90  64  43 NE16      30.14S HX  91
ORD            SUNNY     89  65  44 N7        30.15R HX  91
YORK           SUNNY     88  72  58 N15G21    30.11R HX  94
AURORA         SUNNY     87  69  54 NE8       30.12R HX  91
LEXINGTON      SUNNY     91  60  35 E15       30.15S HX  90
HOLDREGE       SUNNY     90  65  43 NE16      30.13S HX  91
HEBRON         SUNNY     94  73  49 N7        30.06R HX 103

...NEBRASKA PANHANDLE...

CITY           SKY/WX    TMP DP  RH WIND       PRES   REMARKS
CHADRON        SUNNY     90  59  35 E10       30.21F
ALLIANCE       SUNNY     91  51  25 SE8       30.25S
SCOTTSBLUFF    SUNNY     90  56  31 E9        30.25S
SIDNEY         SUNNY     92  52  25 MISG      30.27F

...WESTERN AND NORTH CENTRAL NEBRASKA...

CITY           SKY/WX    TMP DP  RH WIND       PRES   REMARKS
VALENTINE      SUNNY     84  62  47 VRB6      30.23R
AINSWORTH      MOSUNNY   81  61  49 N6        30.22S
ONEILL         MOSUNNY   78  64  61 NE17      30.16F
BROKEN BOW     SUNNY     90  62  39 NE12      30.18R HX  90
IMPERIAL       SUNNY     93  59  31 E13       30.19S HX  92
NORTH PLATTE   SUNNY     91  61  36 E9        30.17S HX  91
MCCOOK         SUNNY     93  66  40 VRB7      30.14R HX  96

...EASTERN NEBRASKA...

CITY           SKY/WX    TMP DP  RH WIND       PRES   REMARKS
NORFOLK        SUNNY     87  66  49 NE12      30.11F
SO SIOUX CITY  MOSUNNY   85  67  54 N12G18    30.12R
TEKAMAH        PTSUNNY   90  69  50 N18G24    30.08R HX  94
COLUMBUS       SUNNY     88  66  48 N13       30.12R HX  90
ALBION         SUNNY     84  63  49 N10       30.15R
OMAHA EPPLEY   MOSUNNY   91  68  46 N8        30.04S HX  95
OFFUTT AFB     SUNNY     92  74  55 N7        30.03S HX 101
MILLARD        MOSUNNY   89  70  54 NE5       30.04R HX  94
LINCOLN        MOSUNNY   95  72  47 N10       30.05S HX 103
NEBRASKA CITY  SUNNY     93  74  53 NE12      30.02S HX 102
BEATRICE       SUNNY     91  76  62 N5        30.04R HX 102
FALLS CITY     PTSUNNY   97  74  47 W7        29.99S HX 108

...NORTHERN KANSAS...

CITY           SKY/WX    TMP DP  RH WIND       PRES   REMARKS
GOODLAND       SUNNY     94  59  31 MISG      30.18S HX  93
HILL CITY      SUNNY     99  63  30 SE5       30.09S HX 101
NORTON         CLEAR     95  55  26 CALM      30.09F HX  93
PHILLIPSBURG   SUNNY     99  57  25 W5        30.07S HX  97
SMITH CENTER   SUNNY    100  57  23 S5        30.06F HX  99
HAYS           SUNNY     95  64  36 S5        30.09S HX  97
RUSSELL        MOSUNNY   95  69  42 E6        30.07S HX 100
CONCORDIA      MOSUNNY   99  63  30 SW9       30.04S HX 101
SALINA         PTSUNNY  101  69  35 VRB6      30.04S HX 107
TOPEKA         PTSUNNY  101  68  34 W6        30.00F HX 106



USA.gov is the U.S. government's official web portal to all federal, state and local government web resources and services.